Sterling Muni, Sterling, CO, CO

7:44 AM MDT on May 26, 2017 (GMT -0600)
Sterling Municipal

Weather History for KSTK - December, 2012

Change the Weather History Date:

Thursday, December 13, 2012

  Actual Average Record
Temperature  
Mean Temperature 40 °F -  
Max Temperature 53 °F 41 °F 50 °F (2013)
Min Temperature 28 °F 14 °F 8 °F (2013)
Degree Days  
Heating Degree Days 24    
Moisture  
Dew Point 18 °F    
Average Humidity 43    
Maximum Humidity 64    
Minimum Humidity 26    
Precipitation  
Precipitation 0.00 in - - ()
Sea Level Pressure  
Sea Level Pressure 29.95 in    
Wind  
Wind Speed 3 mph ()    
Max Wind Speed 16 mph    
Max Gust Speed -    
Visibility 9.9 miles    
Events      
Averages and records for this station are not official NWS values.
T = Trace of Precipitation, MM = Missing Value Source: Averaged Metar Reports

Daily Weather History Graph

Daily Weather History Graph

Search for Another Location

Airport or City:

Trip Planner

Search our weather history database for the weather conditions in past years. The results will help you decide how hot, cold, wet, or windy it might be!

Date:

Astronomy

Dec. 13, 2012 Rise Set
Actual Time 7:08 AM MST 4:26 PM MST
Civil Twilight 6:37 AM MST 4:57 PM MST
Nautical Twilight 6:03 AM MST 5:31 PM MST
Astronomical Twilight 5:30 AM MST 6:04 PM MST
Moon 7:19 AM MST (12/13) 5:11 PM MST (12/13)
Length of Visible Light 10h 19m
Length of Day
9h 17m
New Moon, 0% of the Moon is Illuminated
Dec 13
New Moon
Dec 19
First Quarter
Dec 28
Full
Jan 4
Last Quarter
Jan 11
New

Hourly Weather History & Observations

Time (MST) Temp. Windchill Dew Point Humidity Pressure Visibility Wind Dir Wind Speed Gust Speed Precip Events Conditions
9:55 AM 32.0 °F - 19.4 °F 60% 30.04 in 7.0 mi Calm Calm - N/A   Clear
10:15 AM 35.6 °F - 19.4 °F 52% 30.04 in 10.0 mi Calm Calm - N/A   Clear
10:35 AM 39.2 °F - 19.4 °F 45% 30.03 in 10.0 mi Calm Calm - N/A   Clear
10:55 AM 41.0 °F - 19.4 °F 42% 30.03 in 10.0 mi Calm Calm - N/A   Clear
11:15 AM 44.6 °F - 21.2 °F 39% 30.01 in 10.0 mi Calm Calm - N/A   Clear
11:35 AM 46.4 °F - 21.2 °F 37% 30.00 in 10.0 mi Calm Calm - N/A   Clear
11:55 AM 46.4 °F - 19.4 °F 34% 30.00 in 10.0 mi Calm Calm - N/A   Clear
12:15 PM 48.2 °F - 19.4 °F 32% 29.99 in 10.0 mi Calm Calm - N/A   Clear
12:35 PM 50.0 °F - 19.4 °F 30% 29.98 in 10.0 mi Calm Calm - N/A   Clear
12:55 PM 50.0 °F - 19.4 °F 30% 29.97 in 10.0 mi SSE 3.5 mph - N/A   Clear
1:15 PM 51.8 °F - 19.4 °F 28% 29.96 in 10.0 mi SSE 16.1 mph - N/A   Clear
1:35 PM 53.6 °F - 19.4 °F 26% 29.95 in 10.0 mi SSE 11.5 mph - N/A   Clear
1:55 PM 51.8 °F - 17.6 °F 26% 29.94 in 10.0 mi SSE 10.4 mph - N/A   Clear
2:15 PM 51.8 °F - 17.6 °F 26% 29.94 in 10.0 mi SSE 11.5 mph - N/A   Clear
2:35 PM 51.8 °F - 17.6 °F 26% 29.93 in 10.0 mi SSE 8.1 mph - N/A   Clear
2:55 PM 51.8 °F - 17.6 °F 26% 29.93 in 10.0 mi SSE 10.4 mph - N/A   Clear
3:15 PM 51.8 °F - 19.4 °F 28% 29.93 in 10.0 mi SSE 8.1 mph - N/A   Clear
3:35 PM 51.8 °F - 19.4 °F 28% 29.93 in 10.0 mi SSE 5.8 mph - N/A   Clear
5:15 PM 39.2 °F 37.0 °F 15.8 °F 39% 29.92 in 10.0 mi South 3.5 mph - N/A   Clear
5:55 PM 41.0 °F 37.1 °F 15.8 °F 36% 29.93 in 10.0 mi SSE 5.8 mph - N/A   Clear
6:15 PM 41.0 °F 37.1 °F 15.8 °F 36% 29.93 in 10.0 mi SSW 5.8 mph - N/A   Clear
6:35 PM 39.2 °F 33.6 °F 17.6 °F 42% 29.93 in 10.0 mi South 8.1 mph - N/A   Clear
6:55 PM 41.0 °F 36.4 °F 17.6 °F 39% 29.93 in 10.0 mi South 6.9 mph - N/A   Clear
7:15 PM 37.4 °F 33.8 °F 17.6 °F 45% 29.93 in 10.0 mi SSW 4.6 mph - N/A   Clear
7:35 PM 35.6 °F - 17.6 °F 48% 29.93 in 10.0 mi Calm Calm - N/A   Clear
7:55 PM 35.6 °F 32.8 °F 17.6 °F 48% 29.93 in 10.0 mi SW 3.5 mph - N/A   Clear
8:15 PM 33.8 °F 30.8 °F 17.6 °F 52% 29.92 in 10.0 mi WSW 3.5 mph - N/A   Clear
8:35 PM 37.4 °F 33.8 °F 17.6 °F 45% 29.91 in 10.0 mi SSW 4.6 mph - N/A   Clear
8:55 PM 32.0 °F 27.5 °F 17.6 °F 55% 29.92 in 10.0 mi WNW 4.6 mph - N/A   Clear
9:15 PM 32.0 °F - 15.8 °F 51% 29.92 in 10.0 mi Calm Calm - N/A   Clear
9:35 PM 28.4 °F 23.3 °F 15.8 °F 59% 29.93 in 10.0 mi West 4.6 mph - N/A   Clear
9:55 PM 30.2 °F 26.7 °F 17.6 °F 60% 29.93 in 10.0 mi WNW 3.5 mph - N/A   Clear
10:15 PM 32.0 °F 25.6 °F 17.6 °F 55% 29.92 in 10.0 mi SW 6.9 mph - N/A   Clear
10:35 PM 32.0 °F 26.4 °F 19.4 °F 60% 29.91 in 10.0 mi WSW 5.8 mph - N/A   Clear
10:55 PM 32.0 °F 27.5 °F 19.4 °F 60% 29.91 in 10.0 mi West 4.6 mph - N/A   Clear
11:15 PM 32.0 °F 28.7 °F 17.6 °F 55% 29.90 in 10.0 mi NW 3.5 mph - N/A   Clear
11:35 PM 28.4 °F 24.6 °F 17.6 °F 64% 29.89 in 10.0 mi North 3.5 mph - N/A   Clear
11:55 PM 32.0 °F - 17.6 °F 55% 29.88 in 10.0 mi Calm Calm - N/A   Clear